Weather History for Limon, CO

Change the Weather History Date:

Wednesday, February 13, 2013

  Actual Average Record
Temperature  
Mean Temperature 27 °F -  
Max Temperature 51 °F - 66 °F (1999)
Min Temperature 3 °F - -8 °F (2004)
Degree Days  
Heating Degree Days 38    
Month to date heating degree days 455  
Cooling Degree Days 0    
Month to date cooling degree days 0  
Moisture  
Dew Point 6 °F    
Average Humidity 50    
Maximum Humidity 84    
Minimum Humidity 18    
Precipitation  
Precipitation 0.00 in - 0.07 in (2009)
Month to date precipitation T  
Year to date precipitation 0.29  
Sea Level Pressure  
Sea Level Pressure 30.04 in    
Wind  
Wind Speed 5 mph (NW)    
Max Wind Speed 24 mph    
Max Gust Speed 31 mph    
Visibility 10 miles    
Events      
T = Trace of Precipitation, MM = Missing Value Source: NWS Daily Summary

Daily Weather History Graph

Daily Weather History Graph

Search for Another Location

Airport:

Trip Planner

Search our weather history database for the weather conditions in past years. The results will help you decide how hot, cold, wet, or windy it might be!

Date:

Astronomy

Feb. 13, 2013 Rise Set
Actual Time 6:48 AM MST 5:29 PM MST
Civil Twilight 6:21 AM MST 5:57 PM MST
Nautical Twilight 5:49 AM MST 6:28 PM MST
Astronomical Twilight 5:18 AM MST 6:59 PM MST
Moon 8:20 AM MST (2/13) 9:32 PM MST (2/13)
Length of Visible Light 11h 36m
Length of Day
10h 41m
Waxing Crescent, 14% of the Moon is Illuminated
Feb 13
Waxing Crescent
Feb 17
First Quarter
Feb 25
Full
Mar 4
Last Quarter
Mar 11
New

Hourly Weather History & Observations

Time (MST) Temp. Windchill Dew Point Humidity Pressure Visibility Wind Dir Wind Speed Gust Speed Precip Events Conditions
12:55 AM 9.0 °F 2.4 °F 3.0 °F 77% 30.10 in 10.0 mi WNW 3.5 mph - N/A   Clear
1:55 AM 12.9 °F - 3.0 °F 65% 30.08 in 10.0 mi Calm Calm - N/A   Clear
2:55 AM 10.0 °F 3.6 °F 1.9 °F 70% 30.06 in 10.0 mi NW 3.5 mph - N/A   Clear
3:55 AM 10.9 °F 2.9 °F 3.9 °F 73% 30.04 in 10.0 mi North 4.6 mph - N/A   Partly Cloudy
4:55 AM 6.1 °F -0.9 °F 1.0 °F 80% 30.06 in 10.0 mi NNW 3.5 mph - N/A   Clear
5:55 AM 7.0 °F 0.1 °F 1.0 °F 77% 30.10 in 10.0 mi NNW 3.5 mph - N/A   Clear
6:55 AM 3.9 °F -6.9 °F -0.0 °F 84% 30.13 in 10.0 mi North 5.8 mph - N/A   Clear
7:55 AM 19.0 °F 13.9 °F 7.0 °F 59% 30.08 in 10.0 mi NNE 3.5 mph - N/A   Clear
8:55 AM 30.0 °F - 9.0 °F 41% 30.04 in 10.0 mi Calm Calm - N/A   Clear
9:55 AM 39.0 °F - 9.0 °F 29% 30.00 in 10.0 mi Calm Calm - N/A   Clear
10:55 AM 43.0 °F - 8.1 °F 24% 29.99 in 10.0 mi Calm Calm - N/A   Clear
11:55 AM 46.0 °F 42.5 °F 7.0 °F 20% 29.98 in 10.0 mi SW 6.9 mph - N/A   Clear
12:55 PM 48.9 °F - 7.0 °F 18% 29.95 in 10.0 mi WNW 9.2 mph - N/A   Clear
1:55 PM 48.0 °F - 7.0 °F 19% 29.94 in 10.0 mi NW 23.0 mph 29.9 mph N/A   Clear
2:55 PM 46.9 °F - 6.1 °F 19% 29.95 in 10.0 mi NW 19.6 mph - N/A   Clear
3:55 PM 45.0 °F 38.2 °F 7.0 °F 21% 29.96 in 10.0 mi NNW 15.0 mph 21.9 mph N/A   Clear
4:55 PM 37.0 °F 31.0 °F 7.0 °F 29% 30.02 in 10.0 mi NW 8.1 mph - N/A   Clear
5:55 PM 26.1 °F 19.4 °F 5.0 °F 41% 30.07 in 10.0 mi NW 5.8 mph - N/A   Clear
6:55 PM 25.0 °F 16.3 °F 7.0 °F 46% 30.12 in 10.0 mi NW 8.1 mph - N/A   Clear
7:55 PM 21.9 °F 17.2 °F 8.1 °F 55% 30.09 in 10.0 mi NW 3.5 mph - N/A   Clear
8:55 PM 21.0 °F 11.4 °F 10.0 °F 63% 30.06 in 10.0 mi North 8.1 mph - N/A   Clear
9:55 PM 23.0 °F 15.8 °F 10.0 °F 58% 30.04 in 10.0 mi WSW 5.8 mph - N/A   Clear
10:55 PM 18.0 °F 9.8 °F 9.0 °F 68% 30.05 in 10.0 mi WSW 5.8 mph - N/A   Clear
11:55 PM 19.9 °F 13.4 °F 10.9 °F 68% 30.05 in 10.0 mi NW 4.6 mph - N/A   Clear